TimeCDT,TemperatureF,Dew PointF,Humidity,Sea Level PressureIn,VisibilityMPH,Wind Direction,Wind SpeedMPH,Gust SpeedMPH,PrecipitationIn,Events,Conditions,WindDirDegrees,DateUTC
12:15 AM,62.6,51.8,68,30.09,10.0,Calm,Calm,-,N/A,,Clear,0,2013-05-02 05:15:00
12:35 AM,60.8,51.8,72,30.09,10.0,Calm,Calm,-,N/A,,Clear,0,2013-05-02 05:35:00
12:55 AM,60.8,50.0,68,30.09,10.0,Calm,Calm,-,N/A,,Clear,0,2013-05-02 05:55:00
1:15 AM,60.8,50.0,68,30.08,10.0,Calm,Calm,-,N/A,,Clear,0,2013-05-02 06:15:00
1:35 AM,59.0,48.2,67,30.08,10.0,Calm,Calm,-,N/A,,Clear,0,2013-05-02 06:35:00
1:55 AM,59.0,50.0,72,30.08,10.0,Calm,Calm,-,N/A,,Clear,0,2013-05-02 06:55:00
2:15 AM,59.0,48.2,67,30.07,10.0,Calm,Calm,-,N/A,,Clear,0,2013-05-02 07:15:00
2:35 AM,59.0,50.0,72,30.07,10.0,Calm,Calm,-,N/A,,Clear,0,2013-05-02 07:35:00
2:55 AM,59.0,48.2,67,30.07,10.0,Calm,Calm,-,N/A,,Clear,0,2013-05-02 07:55:00
3:15 AM,59.0,50.0,72,30.07,10.0,Calm,Calm,-,N/A,,Clear,0,2013-05-02 08:15:00
3:35 AM,59.0,48.2,67,30.07,10.0,Calm,Calm,-,N/A,,Clear,0,2013-05-02 08:35:00
3:55 AM,57.2,48.2,72,30.07,10.0,Calm,Calm,-,N/A,,Clear,0,2013-05-02 08:55:00
4:15 AM,57.2,48.2,72,30.07,10.0,South,3.5,-,N/A,,Clear,170,2013-05-02 09:15:00
4:35 AM,57.2,48.2,72,30.07,9.0,Calm,Calm,-,N/A,,Clear,0,2013-05-02 09:35:00
4:55 AM,57.2,48.2,72,30.07,10.0,Calm,Calm,-,N/A,,Clear,0,2013-05-02 09:55:00
5:15 AM,57.2,48.2,72,30.09,9.0,East,3.5,-,N/A,,Mostly Cloudy,90,2013-05-02 10:15:00
5:35 AM,57.2,48.2,72,30.09,10.0,SSW,5.8,-,N/A,,Mostly Cloudy,210,2013-05-02 10:35:00
5:55 AM,57.2,48.2,72,30.10,9.0,SW,4.6,-,N/A,,Mostly Cloudy,220,2013-05-02 10:55:00
6:15 AM,60.8,50.0,68,30.11,10.0,SW,9.2,-,N/A,,Scattered Clouds,230,2013-05-02 11:15:00
6:35 AM,62.6,51.8,68,30.12,10.0,SW,5.8,-,N/A,,Mostly Cloudy,220,2013-05-02 11:35:00
6:55 AM,62.6,51.8,68,30.13,10.0,SW,4.6,-,N/A,,Mostly Cloudy,220,2013-05-02 11:55:00
7:15 AM,62.6,51.8,68,30.14,10.0,SSW,5.8,-,N/A,,Mostly Cloudy,200,2013-05-02 12:15:00
7:35 AM,64.4,51.8,64,30.15,10.0,South,6.9,-,N/A,,Overcast,190,2013-05-02 12:35:00
7:55 AM,64.4,51.8,64,30.15,10.0,SSW,6.9,-,N/A,,Mostly Cloudy,210,2013-05-02 12:55:00
8:15 AM,68.0,53.6,60,30.16,10.0,SSW,5.8,-,N/A,,Partly Cloudy,200,2013-05-02 13:15:00
8:35 AM,69.8,53.6,56,30.15,10.0,SW,10.4,-,N/A,,Clear,220,2013-05-02 13:35:00
8:55 AM,69.8,51.8,53,30.15,10.0,SW,9.2,-,N/A,,Clear,230,2013-05-02 13:55:00
9:15 AM,69.8,51.8,53,30.15,10.0,WSW,10.4,-,N/A,,Clear,240,2013-05-02 14:15:00
9:35 AM,71.6,51.8,50,30.15,10.0,SSW,10.4,-,N/A,,Partly Cloudy,210,2013-05-02 14:35:00
9:55 AM,73.4,51.8,47,30.15,10.0,SW,11.5,-,N/A,,Clear,230,2013-05-02 14:55:00
10:15 AM,73.4,51.8,47,30.15,10.0,SSW,12.7,16.1,N/A,,Clear,210,2013-05-02 15:15:00
10:35 AM,73.4,51.8,47,30.15,10.0,SW,8.1,-,N/A,,Clear,220,2013-05-02 15:35:00
10:55 AM,73.4,53.6,50,30.15,10.0,WSW,8.1,-,N/A,,Clear,240,2013-05-02 15:55:00
11:15 AM,73.4,53.6,50,30.15,10.0,WSW,5.8,-,N/A,,Clear,240,2013-05-02 16:15:00
11:35 AM,75.2,53.6,47,30.15,10.0,SW,6.9,-,N/A,,Clear,220,2013-05-02 16:35:00
11:55 AM,75.2,53.6,47,30.14,10.0,South,5.8,-,N/A,,Scattered Clouds,190,2013-05-02 16:55:00
12:15 PM,75.2,53.6,47,30.13,10.0,South,9.2,-,N/A,,Mostly Cloudy,170,2013-05-02 17:15:00
12:35 PM,75.2,53.6,47,30.13,10.0,South,9.2,-,N/A,,Mostly Cloudy,170,2013-05-02 17:35:00
12:55 PM,75.2,53.6,47,30.12,10.0,South,10.4,-,N/A,,Mostly Cloudy,170,2013-05-02 17:55:00
1:15 PM,75.2,53.6,47,30.12,10.0,SSE,11.5,-,N/A,,Mostly Cloudy,150,2013-05-02 18:15:00
1:35 PM,75.2,53.6,47,30.11,10.0,South,5.8,-,N/A,,Mostly Cloudy,170,2013-05-02 18:35:00
1:55 PM,78.8,53.6,42,30.11,10.0,SSW,6.9,-,N/A,,Scattered Clouds,200,2013-05-02 18:55:00
2:15 PM,75.2,53.6,47,30.10,10.0,SE,5.8,-,N/A,,Partly Cloudy,130,2013-05-02 19:15:00
2:35 PM,75.2,53.6,47,30.09,10.0,SSE,6.9,-,N/A,,Partly Cloudy,160,2013-05-02 19:35:00
2:55 PM,75.2,53.6,47,30.08,10.0,South,8.1,-,N/A,,Scattered Clouds,170,2013-05-02 19:55:00
3:15 PM,77.0,53.6,44,30.07,10.0,SSE,9.2,-,N/A,,Scattered Clouds,150,2013-05-02 20:15:00
3:35 PM,75.2,53.6,47,30.06,10.0,South,6.9,-,N/A,,Partly Cloudy,170,2013-05-02 20:35:00
3:55 PM,75.2,53.6,47,30.05,10.0,SSE,6.9,-,N/A,,Clear,150,2013-05-02 20:55:00
4:15 PM,75.2,53.6,47,30.05,10.0,SSE,6.9,-,N/A,,Clear,160,2013-05-02 21:15:00
4:35 PM,77.0,53.6,44,30.04,10.0,South,8.1,-,N/A,,Clear,170,2013-05-02 21:35:00
4:55 PM,77.0,53.6,44,30.04,10.0,South,9.2,-,N/A,,Clear,190,2013-05-02 21:55:00
5:15 PM,75.2,51.8,44,30.04,10.0,South,8.1,-,N/A,,Clear,170,2013-05-02 22:15:00
5:35 PM,75.2,51.8,44,30.03,10.0,South,6.9,-,N/A,,Clear,190,2013-05-02 22:35:00
5:55 PM,75.2,51.8,44,30.03,10.0,South,6.9,-,N/A,,Clear,170,2013-05-02 22:55:00
6:15 PM,75.2,53.6,47,30.03,10.0,South,5.8,-,N/A,,Clear,170,2013-05-02 23:15:00
6:35 PM,75.2,53.6,47,30.03,10.0,SSE,3.5,-,N/A,,Clear,160,2013-05-02 23:35:00
6:55 PM,73.4,53.6,50,30.03,10.0,SSE,6.9,-,N/A,,Mostly Cloudy,160,2013-05-02 23:55:00
7:15 PM,73.4,53.6,50,30.04,10.0,SE,5.8,-,N/A,,Scattered Clouds,140,2013-05-03 00:15:00
7:35 PM,71.6,53.6,53,30.04,10.0,SSE,6.9,-,N/A,,Partly Cloudy,150,2013-05-03 00:35:00
7:55 PM,71.6,51.8,50,30.04,10.0,SE,4.6,-,N/A,,Clear,130,2013-05-03 00:55:00
8:15 PM,69.8,51.8,53,30.04,10.0,SSE,4.6,-,N/A,,Clear,150,2013-05-03 01:15:00
8:35 PM,66.2,51.8,60,30.05,10.0,SSE,4.6,-,N/A,,Clear,160,2013-05-03 01:35:00
8:55 PM,68.0,51.8,56,30.05,10.0,SE,4.6,-,N/A,,Clear,140,2013-05-03 01:55:00
9:15 PM,66.2,50.0,56,30.05,10.0,SSE,3.5,-,N/A,,Clear,150,2013-05-03 02:15:00
9:35 PM,64.4,51.8,64,30.05,10.0,WSW,3.5,-,N/A,,Clear,250,2013-05-03 02:35:00
9:55 PM,64.4,51.8,64,30.04,10.0,Calm,Calm,-,N/A,,Partly Cloudy,0,2013-05-03 02:55:00
10:15 PM,64.4,51.8,64,30.04,10.0,SW,3.5,-,N/A,,Mostly Cloudy,230,2013-05-03 03:15:00
10:35 PM,64.4,51.8,64,30.04,10.0,South,3.5,-,N/A,,Overcast,190,2013-05-03 03:35:00
10:55 PM,66.2,51.8,60,30.04,10.0,South,5.8,-,N/A,,Overcast,170,2013-05-03 03:55:00
11:15 PM,66.2,51.8,60,30.04,10.0,South,6.9,-,N/A,,Overcast,180,2013-05-03 04:15:00
11:35 PM,66.2,53.6,64,30.04,10.0,SSW,9.2,-,N/A,,Overcast,210,2013-05-03 04:35:00
11:55 PM,64.4,53.6,68,30.04,10.0,WSW,6.9,-,N/A,,Overcast,240,2013-05-03 04:55:00